Location: Lugrin
(46.4033°N, 6.6674°E)
Time: 04:59:20
(UTC+00:00)

Tsikada Rocket - Pass Details

Date: 20 January 2021
Orbit: 958 x 1009 km, 82.9° (Epoch: 06 March)

Event Time Altitude Azimuth Distance (km) Brightness Sun altitude
Rises 18:42:34 0° 248° (WSW) 3,704 8.2 -24.2°
Reaches altitude 10° 18:46:52 10° 276° (W) 2,748 7.4 -24.9°
Maximum altitude 18:49:32 13° 301° (WNW) 2,542 6.8 -25.4°
Drops below altitude 10° 18:52:12 10° 327° (NNW) 2,739 6.7 -25.8°
Sets 18:56:30 0° 355° (N) 3,680 7.1 -26.6°
